METAR AND TAF INFORMATION
METAR FOR KLAX
KLAX 230353Z 27005KT 10SM FEW010 20/17 A2984 RMK AO2 SLP101 T02000167 $
KLAX 230253Z 26005KT 10SM FEW120 19/17 A2982 RMK AO2 SLP096 T01940167 53002 $
KLAX 230153Z 25009KT 10SM FEW120 21/16 A2981 RMK AO2 SLP094 T02110161 $
KLAX 222346Z 2300/2406 26012KT P6SM FEW150
FM230300 24005KT P6SM SCT150
FM231000 VRB03KT 6SM BR BKN006
FM231500 24005KT 6SM HZ FEW006
FM231800 26012KT P6SM SKC
FM240300 24006KT P6SM FEW150

 AIRPORT MAP

 RUNWAY INFORMATION
Runway 06L Runway length 8925 ft Runway width 150 ft
Runway elevation 112 ft Runway displaced threshold 0 ft Runway heading 83
Runway 24R Runway length 8925 ft Runway width 150 ft
Runway elevation 117 ft Runway displaced threshold 0 ft Runway heading 263
Runway 06R Runway length 10285 ft Runway width 150 ft
Runway elevation 108 ft Runway displaced threshold 331 ft Runway heading 83
Runway 24L Runway length 10285 ft Runway width 150 ft
Runway elevation 111 ft Runway displaced threshold 0 ft Runway heading 263
Runway 07L Runway length 12091 ft Runway width 150 ft
Runway elevation 119 ft Runway displaced threshold 0 ft Runway heading 83
Runway 25R Runway length 12091 ft Runway width 150 ft
Runway elevation 94 ft Runway displaced threshold 957 ft Runway heading 263
Runway 07R Runway length 11096 ft Runway width 200 ft
Runway elevation 118 ft Runway displaced threshold 0 ft Runway heading 83
Runway 25L Runway length 11096 ft Runway width 200 ft
Runway elevation 95 ft Runway displaced threshold 0 ft Runway heading 263

 AIRPORT FREQUENCIES
Type APP Name SOCAL APP Frequency 124.3 MHZ
Type APP Name SOCAL APP Frequency 36.07 MHZ
Type ATIS Name ATIS Frequency 133.8 MHZ
Type CLD Name CLNC DEL Frequency 121.4 MHZ
Type DEP Name SOCAL DEP Frequency 124.3 MHZ
Type GND Name GND Frequency 121.65 MHZ
Type MISC Name CG Frequency 34.5 MHZ
Type MISC Name CG Frequency 898.4 MHZ
Type OPS Name AF Frequency 37.22 MHZ
Type TWR Name TWR Frequency 119.8 MHZ
Type UNIC Name UNICOM Frequency 122.95 MHZ

 AIRPORT NEAR NAVIGATION AIDS
Type VORTAC Name Los Angeles Frequency 113600 KHZ
Type NDB Name Romen Frequency 278 KHZ

-